Voltar ao catálogo

FENGYUN 1C DEB

AtivoSSO
NORAD 31531·DEBRIS·🇨🇳 China

Lançado May 10, 1999 de Taiyuan Satellite Launch Center

Loading…

Próximas Passagens (próximas 24 horas)

TLE

AtualizadoSource: Space-Track

Época: Sep 12, 2026, 09:11 UTC

1 31531U 99025BXW 26255.38280059  .00001483  00000-0  36933-3 0  9996
2 31531  98.3533 297.6612 0241058 169.5725 191.0593 14.37109226678637

Acompanhe FENGYUN 1C DEB em tempo real com AllMySat

Download on the App Store